Total_Precipitation_Accumulation
2.08 2.22 2.20 2.40 2.35 2.41 2.65 3.03 3.06 3.26 3.33 3.32 3.12 2.77 2.69 2.53 2.30 2.41 2.49 2.37 2.29 2.54 3.09 3.50 3.39 3.15 2.84 2.77 2.69 2.50 2.18 1.99 1.80 1.47 1.27 1.29 1.26 1.17 1.10 1.06 0.95 0.85 0.68
2.65 2.86 2.85 2.88 2.63 2.61 2.90 3.18 3.29 3.82 3.79 3.68 3.23 2.97 2.82 2.74 2.50 2.40 2.58 2.66 2.34 2.31 2.73 3.46 3.75 3.56 3.33 3.26 3.04 2.73 2.42 2.17 2.03 1.59 1.28 1.22 1.28 1.28 1.22 1.18 0.99 0.83 0.65
3.06 3.25 3.17 3.03 2.95 2.91 3.14 3.38 3.56 3.76 3.62 3.48 3.33 3.14 3.03 2.83 2.45 2.44 2.48 2.67 2.52 2.35 2.62 3.06 3.52 3.62 3.68 3.73 3.48 3.16 2.72 2.35 2.08 1.70 1.31 1.15 1.18 1.19 1.17 1.16 1.02 0.81 0.58
3.21 3.56 3.33 3.13 3.43 3.22 3.40 3.90 3.96 3.97 3.98 3.75 3.57 3.27 3.09 2.90 2.44 2.33 2.33 2.60 2.94 2.53 2.64 3.00 3.22 3.34 3.81 4.11 4.05 3.85 3.35 2.78 2.24 1.83 1.46 1.32 1.29 1.23 1.17 1.08 1.03 0.82 0.57
3.09 3.42 3.32 3.36 3.40 3.65 3.70 3.46 4.07 4.15 4.08 3.89 3.32 3.10 2.75 2.59 2.51 2.24 2.36 2.46 2.81 2.64 2.62 2.72 3.00 3.20 3.79 4.45 4.80 4.65 4.20 3.61 2.91 2.38 2.12 1.96 1.86 1.64 1.37 1.19 1.02 0.86 0.64
2.95 3.39 3.24 3.21 3.30 3.65 3.67 3.67 4.07 4.09 3.87 3.84 3.09 2.82 2.64 2.26 2.25 2.32 2.18 2.35 2.51 2.18 2.33 2.64 3.11 2.80 3.07 3.55 4.44 4.86 4.83 4.53 3.97 3.64 3.44 3.10 2.81 2.36 1.76 1.38 1.13 0.98 0.80
2.79 3.24 3.01 3.33 3.26 3.39 3.45 3.48 3.77 3.91 3.59 3.66 3.63 3.14 2.46 2.06 2.04 2.05 2.09 2.23 2.22 2.29 2.75 3.21 3.33 3.23 3.07 2.97 3.33 3.95 4.72 4.95 4.48 4.05 3.96 3.91 3.74 3.08 2.27 1.73 1.36 1.12 0.99
2.64 2.82 3.06 2.97 3.02 3.21 3.23 3.30 3.62 3.61 3.24 3.38 3.64 3.68 2.94 2.59 2.13 1.65 1.97 2.08 2.15 2.48 2.67 2.81 3.16 3.44 3.51 3.80 3.26 3.11 3.80 4.43 4.52 4.23 3.92 3.98 3.91 3.21 2.51 2.17 1.76 1.36 1.22
2.50 2.58 2.76 2.79 2.82 2.72 2.95 3.20 3.17 3.22 3.16 3.12 3.20 3.60 3.29 2.87 2.41 1.88 1.74 1.85 2.15 2.41 2.42 2.61 2.66 2.93 3.15 3.71 3.74 3.31 3.08 3.23 3.78 4.37 4.30 4.03 3.73 3.13 2.67 2.47 2.23 1.83 1.58
2.28 2.33 2.40 2.40 2.45 2.45 2.74 2.55 2.61 2.92 3.16 3.02 2.94 2.93 2.99 3.08 2.95 2.35 1.88 1.79 2.02 2.17 2.19 2.15 2.36 2.67 2.75 3.04 3.31 3.28 2.90 2.53 2.81 3.52 4.08 4.09 3.73 3.10 2.77 2.74 2.89 2.69 2.16
2.13 2.05 2.21 2.27 2.26 2.22 2.33 2.41 2.71 2.72 2.86 2.84 2.80 2.82 2.94 2.97 2.78 2.61 2.28 2.10 2.03 1.84 1.85 1.98 2.17 2.50 2.65 2.79 3.05 3.08 3.04 2.49 2.38 2.54 2.99 3.41 3.54 3.41 3.08 3.05 3.39 3.51 3.14
1.95 1.94 2.03 2.24 2.17 2.13 2.25 2.34 2.44 2.46 2.56 2.65 2.61 2.61 2.83 2.71 2.64 2.75 2.46 2.32 2.22 1.91 1.87 1.94 2.05 2.27 2.39 2.47 2.37 2.61 2.53 2.19 1.99 1.89 1.90 2.21 2.63 2.92 3.05 3.22 3.62 3.87 3.84
1.72 1.71 1.82 1.98 1.96 1.97 2.09 2.24 2.26 2.36 2.48 2.51 2.43 2.44 2.51 2.45 2.50 2.66 2.79 2.55 2.37 2.02 2.01 1.92 1.92 2.12 2.10 2.32 2.26 2.05 1.76 1.66 1.54 1.43 1.43 1.52 1.73 2.03 2.27 2.58 3.06 3.49 3.68
1.56 1.63 1.71 1.73 1.80 1.85 1.87 2.21 2.27 2.34 2.45 2.38 2.23 2.53 2.43 2.21 2.34 2.52 2.78 3.00 2.83 2.40 2.35 2.18 1.94 1.89 2.00 2.07 1.98 1.74 1.41 1.36 1.24 1.17 1.16 1.22 1.34 1.47 1.61 1.80 2.11 2.38 2.65
1.75 1.77 1.74 1.76 1.84 1.96 2.10 2.34 2.40 2.38 2.46 2.41 2.46 2.58 2.40 2.22 2.22 2.27 2.67 3.00 3.19 2.87 2.61 2.41 2.18 1.87 1.85 1.76 1.78 1.58 1.53 1.38 1.16 1.10 1.06 1.01 1.06 1.17 1.30 1.39 1.50 1.64 1.74
1.93 1.92 1.92 1.90 1.87 1.96 2.15 2.33 2.38 2.38 2.46 2.50 2.55 2.66 2.63 2.43 2.42 2.40 2.65 2.95 3.16 3.25 2.82 2.50 2.43 2.09 1.91 1.65 1.78 1.60 1.48 1.43 1.18 1.05 1.04 0.98 0.97 1.00 1.05 1.12 1.18 1.24 1.33
1.82 1.76 1.74 1.75 1.77 1.85 1.96 2.04 2.02 2.07 2.10 2.23 2.21 2.35 2.48 2.59 2.58 2.59 2.75 2.89 3.11 3.33 2.93 2.71 2.84 2.64 2.37 2.08 1.87 1.73 1.52 1.40 1.24 1.12 0.98 0.96 0.95 0.95 0.99 1.03 1.04 1.10 1.17
1.51 1.42 1.47 1.52 1.52 1.53 1.61 1.60 1.59 1.71 1.88 2.08 2.23 2.35 2.27 2.36 2.38 2.42 2.62 2.83 3.07 3.27 3.11 3.02 3.20 3.14 2.83 2.43 2.24 2.05 1.66 1.43 1.34 1.31 1.10 0.96 0.96 0.97 0.96 1.01 1.05 1.05 1.07
1.19 1.19 1.27 1.34 1.34 1.36 1.34 1.35 1.45 1.56 1.70 1.88 2.05 2.07 1.98 2.06 2.10 2.29 2.38 2.54 2.78 3.01 3.08 3.03 3.17 3.21 2.92 2.64 2.49 2.12 1.84 1.77 1.46 1.43 1.31 1.11 1.00 0.98 1.00 1.00 1.00 1.02 1.02
1.13 1.17 1.28 1.34 1.33 1.38 1.43 1.56 1.65 1.70 1.77 1.78 1.75 1.72 1.68 1.75 1.88 2.12 2.22 2.31 2.47 2.69 2.80 2.87 3.03 3.07 2.91 2.81 2.74 2.36 2.12 2.00 1.75 1.46 1.44 1.23 1.12 1.03 0.98 0.95 0.96 1.00 1.07
1.14 1.20 1.33 1.43 1.49 1.47 1.38 1.57 1.70 1.65 1.71 1.70 1.61 1.46 1.35 1.44 1.56 1.71 1.68 1.91 2.12 2.32 2.44 2.59 2.79 2.99 2.84 2.82 2.65 2.48 2.26 2.16 2.03 1.75 1.69 1.42 1.24 1.10 0.96 0.92 0.93 0.99 1.13
1.21 1.21 1.22 1.31 1.30 1.09 1.20 1.37 1.49 1.53 1.62 1.66 1.54 1.39 1.26 1.26 1.33 1.40 1.43 1.50 1.67 1.89 2.08 2.37 2.57 2.73 2.60 2.54 2.63 2.60 2.50 2.28 2.16 2.01 2.10 1.95 1.68 1.52 1.23 0.97 0.93 0.96 1.08
1.24 1.27 1.26 1.28 1.25 1.20 1.26 1.24 1.24 1.35 1.48 1.50 1.55 1.54 1.28 1.06 1.21 1.20 1.28 1.28 1.36 1.48 1.69 2.01 2.20 2.28 2.42 2.40 2.64 2.71 2.79 2.67 2.49 2.37 2.50 2.47 2.30 2.11 1.49 1.27 1.22 1.03 1.00
1.29 1.32 1.32 1.30 1.35 1.33 1.32 1.19 1.21 1.22 1.35 1.43 1.44 1.42 1.39 1.32 1.23 1.20 1.24 1.26 1.16 1.21 1.36 1.41 1.59 1.88 2.36 2.62 2.64 2.68 2.90 2.87 2.64 2.54 2.63 2.71 2.49 2.40 1.91 1.48 1.27 1.00 0.90
1.31 1.29 1.28 1.23 1.24 1.33 1.36 1.24 1.19 1.18 1.32 1.40 1.40 1.36 1.32 1.31 1.32 1.19 1.22 1.22 1.15 1.12 1.18 1.28 1.39 1.61 1.89 2.21 2.40 2.45 2.54 2.68 2.71 2.64 2.64 2.77 2.69 2.60 2.57 2.23 1.64 1.26 0.98
1.47 1.43 1.36 1.31 1.29 1.32 1.32 1.14 1.08 1.07 1.19 1.28 1.37 1.28 1.16 1.08 1.12 1.07 1.14 1.22 1.13 1.11 1.17 1.18 1.20 1.28 1.44 1.63 1.72 1.68 1.79 1.98 2.15 2.32 2.26 2.48 2.74 2.82 3.01 2.93 2.39 1.78 1.38